When you browse on this site, cookies collect data to enhance your experience and personalize the content and advertising you see.
Visit our Privacy Policy to learn more. By continuing to use the site, you agree to this use of cookies and data.
  • în România
  • Lista ţărilor
  • Pe 7 zile
  • Temperatura apei
  • Meteo pe hartă
  • Widget-uri
  • user-avatar
    Intrare

    Meteo pe oră la Al-Basra

    Astăzi, 29 Februarie, Sâmbătă

    Timp Temperatura Precipitaţii Vânt Presiune Umiditate
    00:00 +19°C° 0 mm 1 m/s 758 mmHg 38%
    01:00 +19°C° 0 mm 1 m/s 758 mmHg 40%
    02:00 +18°C° 0 mm 1 m/s 757 mmHg 42%
    03:00 +18°C° 0 mm 1 m/s 756 mmHg 43%
    04:00 +18°C° 0 mm 1 m/s 757 mmHg 46%
    05:00 +16°C° 0 mm 1 m/s 757 mmHg 48%
    06:00 +16°C° 0 mm 1 m/s 757 mmHg 51%
    07:00 +18°C° 0 mm 1 m/s 757 mmHg 47%
    08:00 +20°C° 0 mm 1 m/s 757 mmHg 43%
    09:00 +21°C° 0 mm 1 m/s 757 mmHg 38%
    10:00 +22°C° 0 mm 1 m/s 757 mmHg 34%
    11:00 +24°C° 0 mm 2 m/s 757 mmHg 30%
    12:00 +25°C° 0 mm 2 m/s 757 mmHg 25%
    13:00 +25°C° 0 mm 2 m/s 756 mmHg 23%
    14:00 +26°C° 0 mm 2 m/s 755 mmHg 21%
    15:00 +27°C° 0 mm 2 m/s 754 mmHg 19%
    16:00 +26°C° 0 mm 3 m/s 754 mmHg 21%
    17:00 +26°C° 0 mm 3 m/s 754 mmHg 23%
    18:00 +25°C° 0 mm 3 m/s 754 mmHg 24%
    19:00 +23°C° 0 mm 4 m/s 754 mmHg 27%
    20:00 +22°C° 0 mm 4 m/s 754 mmHg 30%
    21:00 +21°C° 0 mm 4 m/s 754 mmHg 33%
    22:00 +20°C° 0 mm 4 m/s 754 mmHg 36%
    23:00 +20°C° 0 mm 4 m/s 754 mmHg 38%

    Mâine, 1 Martie, Duminică

    Timp Temperatura Precipitaţii Vânt Presiune Umiditate
    00:00 +19°C° 0 mm 4 m/s 754 mmHg 41%
    01:00 +19°C° 0 mm 4 m/s 754 mmHg 45%
    02:00 +18°C° 0 mm 3 m/s 754 mmHg 49%
    03:00 +18°C° 0 mm 3 m/s 754 mmHg 53%
    04:00 +17°C° 0 mm 3 m/s 753 mmHg 56%
    05:00 +17°C° 0 mm 4 m/s 753 mmHg 59%
    06:00 +17°C° 0 mm 4 m/s 753 mmHg 62%
    07:00 +18°C° 0 mm 4 m/s 754 mmHg 58%
    08:00 +19°C° 0 mm 5 m/s 754 mmHg 53%
    09:00 +20°C° 0 mm 6 m/s 754 mmHg 49%
    10:00 +22°C° 0 mm 5 m/s 754 mmHg 41%
    11:00 +25°C° 0 mm 5 m/s 754 mmHg 33%
    12:00 +27°C° 0 mm 5 m/s 754 mmHg 25%
    13:00 +27°C° 0 mm 6 m/s 753 mmHg 25%
    14:00 +27°C° 0 mm 7 m/s 753 mmHg 24%
    15:00 +28°C° 0 mm 7 m/s 752 mmHg 24%
    16:00 +27°C° 0 mm 7 m/s 753 mmHg 26%
    17:00 +26°C° 0 mm 7 m/s 753 mmHg 28%
    18:00 +24°C° 0 mm 6 m/s 754 mmHg 30%
    19:00 +23°C° 0 mm 6 m/s 755 mmHg 32%
    20:00 +22°C° 0 mm 6 m/s 756 mmHg 35%
    21:00 +21°C° 0 mm 6 m/s 757 mmHg 37%
    22:00 +20°C° 0 mm 6 m/s 757 mmHg 36%
    23:00 +20°C° 0 mm 6 m/s 758 mmHg 35%

    Poimâine, 2 Martie, Luni

    Timp Temperatura Precipitaţii Vânt Presiune Umiditate
    00:00 +19°C° 0 mm 6 m/s 758 mmHg 34%
    01:00 +17°C° 0 mm 5 m/s 758 mmHg 37%
    02:00 +18°C° 0 mm 4 m/s 758 mmHg 40%
    03:00 +17°C° 0 mm 3 m/s 758 mmHg 43%
    04:00 +16°C° 0 mm 3 m/s 758 mmHg 45%
    05:00 +16°C° 0 mm 3 m/s 759 mmHg 47%
    06:00 +14°C° 0 mm 4 m/s 759 mmHg 49%
    07:00 +15°C° 0 mm 4 m/s 760 mmHg 46%
    08:00 +16°C° 0 mm 5 m/s 761 mmHg 43%
    09:00 +17°C° 0 mm 6 m/s 761 mmHg 40%
    10:00 +19°C° 0 mm 6 m/s 761 mmHg 37%
    11:00 +20°C° 0 mm 6 m/s 761 mmHg 35%
    12:00 +21°C° 0 mm 6 m/s 761 mmHg 33%
    13:00 +22°C° 0 mm 6 m/s 760 mmHg 31%
    14:00 +22°C° 0 mm 6 m/s 760 mmHg 30%
    15:00 +23°C° 0 mm 6 m/s 759 mmHg 29%
    16:00 +22°C° 0 mm 6 m/s 759 mmHg 31%
    17:00 +21°C° 0 mm 5 m/s 760 mmHg 33%
    18:00 +21°C° 0 mm 5 m/s 760 mmHg 35%
    19:00 +20°C° 0 mm 4 m/s 760 mmHg 38%
    20:00 +20°C° 0 mm 4 m/s 761 mmHg 40%
    21:00 +19°C° 0 mm 4 m/s 761 mmHg 43%
    22:00 +19°C° 0 mm 4 m/s 761 mmHg 45%
    23:00 +18°C° 0 mm 4 m/s 761 mmHg 47%

    3 Martie, Marţi

    Timp Temperatura Precipitaţii Vânt Presiune Umiditate
    00:00 +18°C° 0 mm 4 m/s 761 mmHg 49%
    01:00 +17°C° 0 mm 4 m/s 761 mmHg 51%
    02:00 +17°C° 0 mm 4 m/s 761 mmHg 53%
    03:00 +15°C° 0 mm 4 m/s 761 mmHg 55%
    04:00 +15°C° 0 mm 4 m/s 761 mmHg 55%
    05:00 +14°C° 0 mm 4 m/s 761 mmHg 56%
    06:00 +14°C° 0 mm 4 m/s 761 mmHg 57%
    07:00 +15°C° 0 mm 5 m/s 762 mmHg 52%
    08:00 +16°C° 0 mm 5 m/s 762 mmHg 47%
    09:00 +17°C° 0 mm 6 m/s 763 mmHg 43%
    10:00 +19°C° 0 mm 6 m/s 763 mmHg 38%
    11:00 +21°C° 0 mm 7 m/s 762 mmHg 34%
    12:00 +22°C° 0 mm 7 m/s 762 mmHg 30%
    13:00 +22°C° 0 mm 7 m/s 761 mmHg 29%
    14:00 +22°C° 0 mm 7 m/s 761 mmHg 27%
    15:00 +23°C° 0 mm 8 m/s 760 mmHg 25%
    16:00 +22°C° 0 mm 7 m/s 760 mmHg 27%
    17:00 +22°C° 0 mm 6 m/s 760 mmHg 29%
    18:00 +21°C° 0 mm 6 m/s 760 mmHg 31%
    19:00 +20°C° 0 mm 5 m/s 760 mmHg 33%
    20:00 +20°C° 0 mm 5 m/s 761 mmHg 34%
    21:00 +19°C° 0 mm 4 m/s 761 mmHg 36%
    22:00 +19°C° 0 mm 4 m/s 761 mmHg 38%
    23:00 +18°C° 0 mm 4 m/s 761 mmHg 40%

    4 Martie, Miercuri

    Timp Temperatura Precipitaţii Vânt Presiune Umiditate
    00:00 +17°C° 0 mm 4 m/s 761 mmHg 42%
    01:00 +17°C° 0 mm 4 m/s 760 mmHg 44%
    02:00 +15°C° 0 mm 4 m/s 760 mmHg 45%
    03:00 +15°C° 0 mm 4 m/s 760 mmHg 47%
    04:00 +15°C° 0 mm 5 m/s 760 mmHg 48%
    05:00 +14°C° 0 mm 5 m/s 760 mmHg 49%
    06:00 +14°C° 0 mm 5 m/s 760 mmHg 49%
    07:00 +15°C° 0 mm 6 m/s 760 mmHg 46%
    08:00 +16°C° 0 mm 6 m/s 760 mmHg 42%
    09:00 +17°C° 0 mm 7 m/s 761 mmHg 39%
    10:00 +20°C° 0 mm 8 m/s 760 mmHg 35%
    11:00 +21°C° 0 mm 8 m/s 760 mmHg 32%
    12:00 +22°C° 0 mm 8 m/s 760 mmHg 28%
    13:00 +23°C° 0 mm 8 m/s 759 mmHg 26%
    14:00 +23°C° 0 mm 8 m/s 759 mmHg 24%
    15:00 +24°C° 0 mm 8 m/s 758 mmHg 23%
    16:00 +23°C° 0 mm 7 m/s 758 mmHg 24%
    17:00 +23°C° 0 mm 6 m/s 758 mmHg 26%
    18:00 +22°C° 0 mm 5 m/s 758 mmHg 27%
    19:00 +21°C° 0 mm 5 m/s 758 mmHg 29%
    20:00 +21°C° 0 mm 5 m/s 758 mmHg 31%
    21:00 +20°C° 0 mm 5 m/s 759 mmHg 32%
    22:00 +19°C° 0 mm 5 m/s 758 mmHg 34%
    23:00 +19°C° 0 mm 5 m/s 758 mmHg 36%

    5 Martie, Joi

    Timp Temperatura Precipitaţii Vânt Presiune Umiditate
    00:00 +17°C° 0 mm 5 m/s 758 mmHg 37%
    01:00 +17°C° 0 mm 5 m/s 758 mmHg 39%
    02:00 +16°C° 0 mm 5 m/s 758 mmHg 41%
    03:00 +16°C° 0 mm 5 m/s 757 mmHg 42%
    04:00 +15°C° 0 mm 4 m/s 758 mmHg 44%
    05:00 +15°C° 0 mm 4 m/s 758 mmHg 45%
    06:00 +14°C° 0 mm 4 m/s 758 mmHg 47%
    07:00 +17°C° 0 mm 4 m/s 758 mmHg 44%
    08:00 +18°C° 0 mm 4 m/s 758 mmHg 40%
    09:00 +19°C° 0 mm 4 m/s 759 mmHg 37%
    10:00 +21°C° 0 mm 4 m/s 759 mmHg 33%
    11:00 +23°C° 0 mm 4 m/s 759 mmHg 29%
    12:00 +25°C° 0 mm 4 m/s 758 mmHg 25%
    13:00 +26°C° 0 mm 4 m/s 758 mmHg 24%
    14:00 +27°C° 0 mm 4 m/s 757 mmHg 22%
    15:00 +27°C° 0 mm 4 m/s 757 mmHg 21%
    16:00 +26°C° 0 mm 3 m/s 757 mmHg 22%
    17:00 +26°C° 0 mm 3 m/s 757 mmHg 24%
    18:00 +25°C° 0 mm 2 m/s 757 mmHg 25%
    19:00 +24°C° 0 mm 3 m/s 757 mmHg 26%
    20:00 +24°C° 0 mm 3 m/s 757 mmHg 27%
    21:00 +22°C° 0 mm 3 m/s 757 mmHg 28%
    22:00 +22°C° 0 mm 3 m/s 757 mmHg 28%
    23:00 +21°C° 0 mm 2 m/s 757 mmHg 29%
    Arată mai mult